TRAPANI/BIRGI_(AFB) current weather conditions

sailwx.info

Wind from 120 at 6 knots

Air temperature 7.0° C
Visibility: greater than 5.4 NM
Dewpoint 5.0° C

Last reported at 2017-Jan-18 21:55 UTC.
Time now 2017-Jan-19 00:13 UTC

Location: N 37°55' E 012°30'.
View on Google Maps.

See reports from other nearby stations

  
Tides and Currents Weather Stations Pressure Air Temp Water Temp Dewpoint Dewpoint Depression Visibility Wind Speed Wind Dir Waves Ship Positions
date/time (UTC)wind fromknots sea level pressurealtimeterstation pressurevisibilityair tempwater tempwave heightnotes
2017-Jan-18 22:55 110 5 5.4 7.0
2017-Jan-18 21:55 120 6 5.4 7.0
2017-Jan-18 20:55 110 4 5.4 7.0
2017-Jan-18 19:55 100 4 5.4 8.0
2017-Jan-18 18:55 300 6 5.4 8.0
2017-Jan-18 17:55 240 6 5.4 8.0
2017-Jan-18 16:55 290 5 4.9 8.0 Light rain.
2017-Jan-18 15:55 330 6 5.4 9.0
2017-Jan-18 14:55 330 9 5.4 9.0
2017-Jan-18 13:55 300 11 5.410.0
2017-Jan-18 12:55 320 11 5.410.0
2017-Jan-18 11:55 320 11 5.410.0
2017-Jan-18 10:55 320 11 5.410.0
2017-Jan-18 09:55 300 8 5.4 9.0
2017-Jan-18 08:55 310 8 5.4 9.0
2017-Jan-18 07:55 280 5 5.4 6.0
2017-Jan-18 06:55 5.4 4.0
2017-Jan-18 05:55 350 4 5.4 4.0
2017-Jan-18 04:55 050 9 5.4 4.0 Light rain.
2017-Jan-18 03:55 050 9 5.4 4.0 Light rain.
2017-Jan-18 02:55 140 9 5.4 5.0 Light rain.
2017-Jan-18 01:55 120 15 5.4 5.0 Light rain.
2017-Jan-18 00:55 120 13 5.4 5.0 Light thunderstorm with rain.
2017-Jan-17 23:55 100 7 5.4 5.0 Light rain.
2017-Jan-17 23:03 150 9 5.4 5.0 Light thunderstorm with rain.
2017-Jan-17 22:55 150 9 5.4 5.0 Light rain.
2017-Jan-17 21:55 150 12 5.4 5.0 Light rain.
2017-Jan-17 20:55 160 13 5.4 5.0 Light rain.
2017-Jan-17 19:55 120 9 5.4 5.0 Light rain.
2017-Jan-17 18:55 130 6 5.4 5.0
2017-Jan-17 17:55 150 6 5.4 5.0
2017-Jan-17 16:55 120 5 5.4 5.0 Thunderstorm.
2017-Jan-17 15:55 140 6 5.4 6.0
2017-Jan-17 13:55 260 15 5.4 7.0 Light thunderstorm with rain.
2017-Jan-17 12:55 160 9 5.4 8.0 Thunderstorm.
2017-Jan-17 11:55 200 11 5.4 7.0
2017-Jan-17 10:55 240 18 gusting 27 5.4 6.0 Light rain.
2017-Jan-17 09:55 5.4 7.0 Light rain.
2017-Jan-17 09:10 280 21 4.3 6.0 Rain. Hail.
2017-Jan-17 08:55 170 9 5.4 6.0
2017-Jan-17 08:08 250 14 gusting 27 5.4 6.0 Light thunderstorm with rain.
2017-Jan-17 07:55 190 6 5.4 6.0
2017-Jan-17 06:55 280 6 5.4 6.0
2017-Jan-17 05:55 340 7 5.4 5.0
2017-Jan-17 04:55 290 20 5.4 6.0 Light rain.
2017-Jan-17 03:55 300 13 5.4 6.0
2017-Jan-17 02:55 210 6 5.4 6.0 Light rain.
2017-Jan-17 01:55 270 6 5.4 6.0 Light rain.
2017-Jan-17 00:55 130 7 5.4 5.0 Light rain.